#timestamp,LO_Frequency,Hit,StdDev 
1510992015.9,286047000.3,N
1510992035.7,286046999.3,N
1510992055.6,286047000.4,N
1510992075.4,286047000.1,N
1510992095.3,286047000.7,N
1510992115.1,286047000.8,N
1510992135.8,286046998.2,N
1510992155.7,286047000.9,N
1510992175.5,286047002.5,N
1510992195.4,286047001.3,N
1510992215.2,286047003.7,Y
1510992235.0,286047001.9,P
1510992235.9,286047001.9,N
1510992255.8,286047001.3,N
1510992275.6,286047002.6,Y
1510992295.4,286046998.1,P
1510992315.3,286046997.0,N
1510992335.1,286046997.1,N
1510992355.9,286046996.5,N
1510992375.7,286046997.3,N
1510992395.5,286047001.2,N
1510992415.4,286047000.4,N
1510992435.2,286047000.8,N
1510992455.0,286046998.1,N
1510992456.0,286046998.1,N
1510992475.8,286046998.6,N
1510992495.6,286047001.1,N
1510992515.5,286047001.0,N
1510992535.3,286047000.8,N
1510992555.1,286046998.3,N
1510992575.9,286046998.1,N
1510992595.7,286046998.7,N
1510992615.6,286046998.6,N
1510992635.4,286046998.8,N
1510992655.2,286046998.4,N
1510992675.1,286046999.0,N
1510992676.0,286046999.0,N
1510992695.8,286046998.8,N
1510992715.6,286046998.3,N
1510992735.5,286047000.6,N
1510992755.3,286046998.5,N
1510992775.2,286046998.1,N
1510992795.9,286046998.8,N
1510992815.7,286046998.6,N
1510992835.6,286046999.1,N
1510992855.4,286047000.9,N
1510992875.2,286046998.7,N
1510992895.1,286046998.3,N
1510992896.0,286046998.3,N
1510992915.8,286047000.8,N
1510992935.7,286047002.8,N
1510992955.5,286047002.6,N
1510992975.3,286047001.9,N
1510992995.2,286047004.2,N
1510993015.0,286047000.1,N
1510993015.9,286047000.1,N
1510993035.8,286046999.8,N
1510993055.6,286047002.8,N
1510993075.4,286046999.7,N
1510993095.3,286047001.6,N
1510993115.1,286047002.0,N
1510993135.8,286047001.6,N
1510993155.7,286047000.2,N
1510993175.5,286046998.9,N
1510993195.4,286046999.3,N
1510993215.2,286046998.3,N
1510993235.0,286046996.7,N
1510993235.9,286046996.7,N
1510993255.8,286046996.8,N
1510993275.6,286046996.5,N
1510993295.4,286046998.2,N
1510993315.3,286047000.4,N
1510993335.1,286047002.1,N
1510993355.9,286047002.5,N
1510993375.7,286047002.0,N
1510993395.5,286047002.6,N
1510993415.4,286047002.3,N
1510993435.2,286047000.5,N
1510993455.1,286046999.9,N
1510993456.0,286046999.9,N
1510993475.8,286047000.2,N
1510993495.6,286047001.6,N
1510993515.5,286047001.9,N
1510993535.3,286046999.9,N
1510993555.1,286047002.4,N
1510993575.9,286047001.0,N
1510993595.7,286047000.2,N
1510993615.6,286047000.0,N
1510993635.4,286047000.0,N
1510993655.2,286047000.7,N
1510993675.1,286046998.1,N
1510993676.0,286046998.1,N
1510993695.8,286047001.2,N
1510993715.6,286046998.4,N
1510993735.5,286046998.6,N
1510993755.3,286046996.5,N
1510993775.2,286047001.0,N
1510993795.9,286046999.0,N
1510993815.7,286047001.2,N
1510993835.6,286047000.6,N
1510993855.4,286046998.5,N
1510993875.3,286046998.4,N
1510993895.1,286047000.8,N
1510993896.0,286047000.8,N
1510993915.8,286046998.5,N
1510993935.7,286046999.9,N
1510993955.5,286046998.3,N
1510993975.3,286047000.5,N
1510993995.2,286047002.3,N
1510994015.0,286047000.5,N
1510994015.9,286047000.5,N
1510994035.8,286047000.0,N
1510994055.6,286047000.5,N
1510994075.4,286047002.4,N
1510994095.3,286047002.6,N
1510994115.1,286047002.1,N
1510994135.9,286047002.1,N
1510994155.7,286047001.7,N
1510994175.5,286047001.6,N
1510994195.4,286047001.9,N
1510994215.2,286047002.1,N
1510994235.0,286047002.3,N
1510994235.9,286047002.3,N
1510994255.8,286046998.5,N
1510994275.6,286047001.1,N
1510994295.5,286046998.3,N
1510994315.3,286046998.9,N
1510994335.1,286046999.0,N
1510994355.9,286046997.0,N
1510994375.7,286046994.9,Y
1510994395.5,286046995.5,P
1510994415.4,286046996.2,N
1510994435.2,286046995.2,N
1510994455.1,286046996.5,N
1510994456.0,286046996.5,N
1510994475.8,286046999.5,N
1510994495.6,286046999.6,N
1510994515.5,286046998.4,N
1510994535.3,286046996.6,N
1510994555.1,286046997.2,N
1510994575.9,286046995.3,N
1510994595.7,286046996.1,N
1510994615.6,286046994.9,Y
1510994635.4,286046998.3,P
1510994655.2,286046998.6,N
1510994675.1,286047000.5,N
1510994676.0,286047000.5,N
1510994695.8,286046999.7,N
1510994715.7,286047000.6,N
1510994735.5,286047001.2,N
1510994755.3,286046998.6,N
1510994775.2,286046999.4,N
1510994795.0,286046998.5,N
1510994795.9,286046998.5,N
1510994815.8,286046996.9,N
1510994835.6,286046999.2,N
1510994855.4,286047000.8,N
1510994875.3,286046998.7,N
1510994895.1,286046999.6,N
1510994915.9,286046996.5,N
1510994935.7,286046998.6,N
1510994955.5,286046999.5,N
1510994975.4,286046997.0,N
1510994995.2,286046999.2,N
1510995015.0,286046997.2,N
1510995015.9,286046997.2,N
1510995035.8,286046997.9,N
1510995055.6,286046997.6,N
1510995075.5,286046997.6,N
1510995095.3,286046999.2,N
1510995115.1,286046999.4,N
1510995135.9,286046999.0,N
1510995155.7,286046997.8,N
1510995175.5,286046998.0,N
1510995195.4,286046995.1,Y
1510995215.2,286046997.4,P
1510995235.1,286046995.4,P
1510995236.0,286046995.4,P
1510995255.8,286046996.7,N
1510995275.6,286046995.8,Y
1510995295.5,286047000.0,P
1510995315.3,286047001.0,N
1510995335.2,286047002.5,N
1510995355.9,286047002.2,N
1510995375.7,286046998.2,N
1510995395.6,286047000.3,N
1510995415.4,286047000.2,N
1510995435.2,286047000.6,N
1510995455.1,286046998.4,N
1510995456.0,286046998.4,N
1510995475.8,286046999.4,N
1510995495.7,286046998.3,N
1510995515.5,286046999.6,N
1510995535.3,286046999.4,N
1510995555.2,286047001.2,N
1510995575.0,286046999.0,N
1510995575.9,286046999.0,N
1510995595.8,286046999.1,N
